Regional Weather Roundup
Issued by NWS

Home | Current Version | Previous Version | Graphics & Text | Print | Product List | Glossary On
Versions: 1 2 3 4 5 6 7 8 9 10 11 12 13 14 15 16 17 18 19 20 21 22 23 24 25 26 27 28 29 30 31 32 33 34 35 36 37 38 39 40 41 42 43 44 45 46 47 48 49 50
000
ASUS43 KDTX 070210
RWRMI
MICHIGAN HOURLY REGIONAL WEATHER ROUNDUP
NATIONAL WEATHER SERVICE DETROIT/PONTIAC MI
1000 PM EDT MON JUL 06 2015

NOTE: "FAIR" INDICATES FEW OR NO CLOUDS BELOW 12,000 FEET WITH NO
SIGNIFICANT WEATHER AND/OR OBSTRUCTION TO VISIBILITY.

MIZ047>049-052>055-059>063-066>070-074>076-081>083-070300-
SOUTHEAST LOWER MICHIGAN

CITY           SKY/WX    TMP DP  RH WIND       PRES   REMARKS
ADRIAN         PTCLDY    75  66  73 S6        29.93F
ALMA           CLOUDY    77  66  69 S6        29.87S
ANN ARBOR      PTCLDY    73  63  70 CALM      29.92S
BAD AXE        CLEAR     71  60  70 S9        29.89F
CARO           CLEAR     72  62  71 S5        29.88F
DETROIT CITY   CLEAR     74  63  68 S8        29.92F
DETROIT        MOCLDY    75  66  73 SE8       29.92F
FLINT          PTCLDY    77  63  61 S6        29.89F
GROSSE ILE     PTCLDY    73  70  88 SE10      29.91F
HILLSDALE      MOCLDY    76  67  71 CALM      29.94R
HOWELL         MOCLDY    75  63  66 S7        29.91S

CITY           SKY/WX    TMP DP  RH WIND       PRES   REMARKS
JACKSON        MOCLDY    75  66  73 S7        29.92R
LAMBERTVILLE   PTCLDY    78  62  58 S3        29.93F HAZE
LANSING        CLOUDY    77  66  68 S7        29.89F
LAPEER         FAIR      72  59  64 CALM      29.91S
MASON          CLOUDY    72  64  77 S6        29.91S
MONROE         PTCLDY    76  65  67 S6        29.92S
MT. CLEMENS    CLEAR     72  65  78 S9        29.90F
PONTIAC        PTCLDY    76  62  62 S8        29.91F
PORT HOPE        N/A     73  62  68 VRB6      29.86F
PORT HURON     CLEAR     70  61  73 S8        29.92F
TRI CITIES     MOCLDY    79  65  62 S9        29.87S
MIDLAND        FAIR      78  64  61 S6        29.85F
TROY           CLEAR     78  61  56 S6        29.94S
SAGINAW HB     MOCLDY    75  63  64 S7        29.87S
$$
MIZ043>046-050>051-056>058-064>065-071>073-077>080-070300-
SOUTHWEST LOWER MICHIGAN

CITY           SKY/WX    TMP DP  RH WIND       PRES   REMARKS
BATTLE CREEK   CLOUDY    79  66  64 S9        29.90S
BENTON HARBOR  CLOUDY    80  69  69 S9        29.85F
BIG RAPIDS     CLOUDY    76  65  67 CALM      29.84F
COLDWATER      CLOUDY    76  64  67 S5        29.92S
FREMONT        CLOUDY    76  68  76 CALM      29.83F
HOLLAND        CLOUDY    80  68  66 S8        29.85S
GRAND RAPIDS   CLOUDY    79  66  64 S9        29.85F
IONIA          FAIR      78  65  62 S8        29.86S
KALAMAZOO      CLOUDY    78  66  66 S8        29.89S
LUDINGTON      CLOUDY    75  66  74 S14G20    29.83R
MARSHALL       CLOUDY    76  66  73 S5        29.90F
MOUNT PLEASANT CLOUDY    78  65  63 SE5       29.85F
MUSKEGON       LGT RAIN  74  64  71 W13G26    29.85R
SOUTH HAVEN    CLOUDY    80  68  67 S6        29.85S
$$
MIZ016>042-070300-
NORTHERN LOWER MICHIGAN

CITY           SKY/WX    TMP DP  RH WIND       PRES   REMARKS
ALPENA         LGT RAIN  76  64  66 S9        29.82F
BEAVER ISLAND  CLOUDY    62  61  96 W5        29.80R FOG
BELLAIRE       CLOUDY    79  63  58 S6        29.78F
CADILLAC       CLOUDY    76  65  69 S7        29.84S
CHARLEVOIX     CLOUDY    76  65  69 S8        29.80F
FRANKFORT      CLOUDY    75  61  60 SW15G22   29.79F
GAYLORD        CLOUDY    74  68  81 S9        29.83F
GRAYLING       CLOUDY    76  64  67 S7        29.84F
HARBOR SPRINGS CLOUDY    68  65  89 CALM      29.78S FOG
HOUGHTON LAKE  CLOUDY    76  65  68 S8        29.85F
MANISTEE       CLOUDY   N/A N/A N/A SW9G20    29.82R
OSCODA         PTCLDY    77  62  59 S9        29.85S
PELLSTON       LGT RAIN  68  65  90 NW3       29.79F FOG
ROGERS CITY    CLOUDY    77  65  66 S8        29.81S
TRAVERSE CITY  CLOUDY    80  65  59 S6        29.77F
$$
MIZ007>008-015-070300-
EASTERN UPPER MICHIGAN

CITY           SKY/WX    TMP DP  RH WIND       PRES   REMARKS
KINROSS        CLOUDY    68  68 100 W5        29.78F
MACKINAC ISLAN CLOUDY    66  66  99 CALM      29.77F FOG
NEWBERRY       LGT RAIN  60  59  97 NW10G16   29.79F
S. S. MARIE    RAIN      69  67  93 SW7       29.79S FOG
MUNISING         N/A     52  50  93 NW13      29.85S
$$
MIZ004>006-011>014-085-070300-
CENTRAL UPPER MICHIGAN

CITY           SKY/WX    TMP DP  RH WIND       PRES   REMARKS
MANISTIQUE     LGT RAIN  56  55  95 N16G22    29.80S
ESCANABA       CLOUDY    57  55  94 N9G18     29.80F
MENOMINEE      CLOUDY    59  55  88 N13G23    29.81R
SAWYER-GWINN   RAIN      57  55  94 N15       29.86S
$$
MIZ001>003-009>011-084-070300-
WESTERN UPPER MICHIGAN

CITY           SKY/WX    TMP DP  RH WIND       PRES   REMARKS
IRON MOUNTAIN  LGT RAIN  58  56  93 N10       29.86R FOG
HOUGHTON       CLOUDY    54  53  97 N10       29.91R FOG
COPPER HARBOR    N/A     50  47  89 N9        29.88F
IRONWOOD         N/A     55  54  94 CALM      29.92R VSB 1/2
$$

ABBREVIATIONS USED IN REMARKS
   TC - TEMPERATURE IN CELSIUS
  WCI - WIND CHILL INDEX
   HX - HEAT INDEX
  VSB - VISIBILITY



USA.gov is the U.S. government's official web portal to all federal, state and local government web resources and services.